Wind_Speed
6 6 6 6 6 7 6 7 7 7 7 8 9 9 9 10 9 9 7 6 5 6 5 4 4 4 4 4 5 5 5 6 6 7 7 7 7 7 7 6 6 6 6
5 5 6 6 6 6 6 6 7 7 8 8 9 9 9 10 10 9 9 7 6 6 5 5 6 6 6 6 5 6 5 6 6 7 7 6 7 7 8 8 7 8 8
5 5 6 6 7 7 6 6 7 7 7 8 9 9 10 10 10 10 9 9 8 6 6 6 6 6 6 6 6 6 6 6 7 7 7 7 7 7 7 8 8 8 9
5 6 6 7 7 7 6 6 7 7 7 8 9 10 10 10 10 10 9 9 9 8 7 7 7 7 7 7 7 7 7 7 7 7 7 7 8 8 8 8 8 8 8
6 6 6 6 7 8 7 6 7 7 8 8 9 10 10 10 10 10 10 10 9 9 8 8 8 8 8 7 8 8 8 8 8 8 8 8 9 9 10 10 9 9 8
6 6 6 6 7 7 8 8 9 8 8 9 9 10 10 11 11 11 10 10 10 9 9 8 9 9 8 8 9 9 8 8 9 9 10 10 10 10 10 10 9 9 9
7 7 7 7 8 8 8 8 10 9 9 10 10 11 11 11 11 11 11 10 10 10 10 10 10 10 10 10 9 9 9 9 9 10 10 10 11 11 10 10 10 10 11
7 8 8 8 9 9 9 10 10 11 11 11 11 12 12 12 12 12 12 12 12 12 12 11 10 10 11 11 10 10 10 10 10 11 10 11 11 11 12 12 12 12 12
7 8 9 9 10 11 11 12 12 12 13 12 13 13 14 14 13 13 13 14 13 13 13 13 12 12 12 12 11 11 11 11 11 11 11 11 12 13 13 14 14 13 13
8 8 9 10 11 12 13 13 13 14 14 14 15 15 15 15 15 14 14 15 15 14 14 14 14 14 13 13 12 11 11 12 12 13 13 13 13 13 14 14 14 15 15
10 10 11 12 12 13 14 14 15 15 15 16 17 17 16 16 16 16 16 16 16 15 15 15 15 15 14 14 13 12 13 13 13 14 14 15 14 14 14 14 15 15 15
12 12 13 13 14 15 15 16 16 16 16 17 17 18 17 17 17 18 18 18 17 17 17 17 17 17 15 15 15 14 14 15 15 15 15 16 16 16 16 16 16 16 16
14 14 14 15 15 16 17 17 17 17 18 18 18 18 18 19 19 20 20 20 20 19 19 19 19 18 17 17 17 16 16 16 17 17 17 17 17 17 17 18 18 18 17
16 16 17 17 17 18 19 19 18 19 19 19 20 20 20 21 21 22 22 22 22 21 21 21 20 20 19 19 19 19 18 18 19 19 19 19 18 18 18 18 18 19 19
19 19 19 19 19 20 20 20 20 20 20 21 22 22 22 23 23 23 24 24 24 23 23 22 22 22 22 22 21 21 20 20 21 21 21 20 20 19 19 19 19 19 20
20 20 21 21 21 21 21 21 22 22 22 23 23 24 24 24 24 25 25 25 25 25 25 24 24 24 24 24 24 23 23 22 22 22 21 21 21 20 21 21 21 21 21
21 22 22 23 23 23 24 24 24 24 25 26 26 26 26 27 27 26 26 26 26 26 26 26 26 26 26 26 25 25 25 25 24 24 24 23 23 22 22 23 23 23 23
23 24 24 24 25 26 27 27 27 28 28 28 28 27 27 28 28 27 27 27 26 27 27 27 27 27 27 27 27 26 26 25 25 25 25 26 25 24 25 25 24 24 25
25 26 27 27 27 28 29 30 30 29 29 29 29 28 28 28 28 28 28 27 27 27 27 28 28 28 28 28 28 28 27 27 26 26 26 27 27 27 27 27 27 26 26
28 29 29 29 29 30 31 31 30 29 29 29 30 29 29 29 29 29 28 28 28 28 28 28 28 28 28 28 28 28 28 28 28 27 28 28 28 29 29 29 29 29 29
29 30 30 30 30 30 30 30 30 29 29 29 30 30 30 29 29 29 29 28 28 28 28 28 28 29 29 29 29 29 29 29 29 29 29 30 30 31 31 32 31 31 31
29 30 30 30 30 30 30 30 29 29 30 30 30 31 31 30 30 30 30 30 29 28 28 29 29 28 29 30 30 30 30 31 30 30 31 31 31 32 33 33 32 32 33
30 30 30 29 29 30 30 31 30 30 30 30 30 30 30 30 30 30 30 30 30 29 29 29 29 29 29 30 30 31 31 31 31 32 32 32 32 32 32 33 34 34 34
30 30 30 29 30 31 31 31 31 30 31 31 30 30 30 30 30 30 30 29 29 30 30 30 30 30 30 30 31 31 31 31 32 32 32 33 33 33 33 34 34 34 34
30 30 30 30 30 30 31 31 31 31 31 31 31 31 30 30 30 30 30 30 30 30 30 30 30 30 30 30 31 31 31 31 32 32 32 32 32 33 34 34 35 35 35
30 30 30 30 30 30 30 30 31 31 31 31 31 31 31 30 30 30 31 30 31 31 30 30 30 29 30 30 30 31 31 31 32 32 32 32 33 33 33 34 34 34 34
Wind_Direction
25 22 24 24 25 31 28 24 29 32 33 27 20 18 17 12 8 7 5 353 340 332 332 329 322 307 296 291 291 287 281 275 274 277 284 288 296 283 280 282 280 279 276
21 21 20 17 14 18 20 20 23 22 19 16 13 10 10 8 7 4 359 354 339 330 330 325 321 312 300 296 298 297 285 286 283 283 285 290 293 289 286 287 281 278 278
11 10 11 15 12 14 22 22 19 14 11 8 5 4 3 4 5 3 358 354 345 332 325 314 311 307 298 294 298 299 290 290 291 291 290 288 287 287 289 289 281 275 274
358 360 359 4 6 9 13 14 11 10 4 0 0 359 357 356 358 356 353 349 348 339 326 317 309 305 299 294 292 294 293 289 290 291 290 290 290 288 293 293 284 278 274
344 345 346 350 356 358 1 3 1 359 356 351 352 351 351 349 348 346 343 341 342 338 329 320 313 307 298 292 288 287 286 284 289 290 290 291 290 290 290 290 287 281 277
328 329 328 333 343 350 353 353 351 350 348 345 342 342 344 343 341 339 335 334 335 334 331 327 318 311 304 296 287 285 288 288 289 287 289 289 287 286 288 290 287 282 278
314 318 318 323 332 337 340 340 340 339 336 336 335 333 335 335 335 333 331 330 330 329 329 326 318 308 304 300 290 283 285 288 287 286 288 287 285 284 285 286 285 285 281
308 313 319 318 321 325 326 329 328 329 330 328 326 326 328 329 330 328 324 325 326 324 324 325 320 310 304 300 295 288 282 282 282 284 288 289 285 282 283 284 284 285 285
312 315 315 313 314 317 318 319 319 319 318 316 315 315 317 318 319 322 322 321 320 318 317 318 316 310 306 300 293 288 284 280 281 282 285 286 286 284 283 283 281 281 283
303 308 314 314 312 312 313 314 311 311 310 309 308 307 309 312 312 313 315 317 317 316 314 314 313 310 306 302 294 288 286 282 283 283 283 284 285 285 285 284 282 280 280
289 295 301 308 310 310 310 310 308 307 306 305 306 308 306 306 306 307 307 310 312 311 310 310 310 309 305 301 295 290 286 284 284 282 283 283 284 284 285 286 281 280 281
285 290 295 301 304 308 309 308 308 307 306 306 304 306 307 305 304 303 304 305 306 306 305 304 303 303 303 302 298 292 285 283 283 282 281 283 283 282 283 282 279 280 280
285 288 290 295 300 303 306 306 306 306 307 307 305 304 303 303 303 302 302 302 303 302 301 301 302 299 298 298 297 292 287 284 283 283 283 283 283 282 280 278 278 278 279
283 286 288 291 296 298 301 302 303 304 305 305 305 303 302 303 304 302 302 301 300 299 299 298 297 296 295 294 293 291 288 285 283 282 282 282 282 281 279 278 278 277 276
280 283 286 288 292 295 297 297 299 301 302 303 304 304 304 303 303 302 302 301 299 296 295 295 295 294 293 291 289 289 286 284 283 281 279 277 277 278 278 279 279 277 276
278 282 286 289 293 294 295 295 297 300 301 302 302 302 302 303 302 301 299 298 296 293 292 291 292 293 293 290 286 285 284 282 281 280 278 276 275 275 276 277 277 278 278
278 282 286 289 291 292 293 293 295 297 298 299 299 299 299 299 299 298 297 296 295 292 291 290 289 289 290 289 287 284 282 280 279 279 278 277 276 275 275 276 276 277 278
279 282 285 288 290 292 293 291 292 293 295 296 297 297 298 298 297 296 295 294 294 292 290 289 289 287 287 286 285 284 282 279 278 276 276 276 275 273 274 274 275 277 277
279 281 284 286 289 291 292 292 291 292 293 295 296 296 296 296 296 295 294 293 293 293 291 289 288 287 286 285 284 283 281 279 277 275 275 275 274 273 273 274 273 274 275
279 281 282 284 286 288 290 291 291 291 291 293 295 296 295 296 296 296 294 292 292 293 292 290 288 286 285 284 283 281 280 278 277 276 275 275 275 274 273 273 272 273 274
278 281 283 284 285 287 288 290 291 292 292 293 294 295 295 296 297 296 294 293 293 292 291 291 289 286 285 283 281 280 279 278 276 275 276 276 276 275 273 273 273 273 272
277 280 282 283 285 286 287 289 291 291 292 292 293 294 294 295 296 297 295 293 293 292 290 290 290 287 284 282 280 279 279 277 276 275 275 276 276 275 274 273 273 273 272
280 281 282 282 283 284 286 288 288 288 290 291 292 294 295 295 296 296 297 296 294 292 290 289 289 287 285 283 282 280 279 277 275 274 274 275 275 276 275 273 273 273 273
280 281 280 281 282 283 285 286 287 289 290 291 291 293 294 295 295 296 297 297 296 293 291 289 289 288 286 284 283 281 279 278 276 275 274 274 275 276 275 274 273 272 272
280 280 280 281 282 283 285 285 286 289 291 292 291 292 293 294 295 295 296 296 297 295 293 292 291 290 288 286 283 282 281 279 278 276 276 275 275 276 276 275 274 272 271
280 280 282 283 284 284 285 286 287 288 290 292 291 292 293 293 293 294 294 296 296 295 294 294 293 291 290 288 286 284 283 282 280 278 277 276 275 275 275 275 274 273 273
Height
5915 5913 5912 5911 5910 5908 5907 5906 5905 5904 5903 5901 5899 5898 5896 5894 5893 5891 5890 5888 5887 5886 5885 5884 5883 5882 5881 5881 5880 5880 5879 5879 5878 5878 5877 5877 5876 5875 5875 5874 5874 5874 5874
5916 5915 5913 5912 5910 5909 5908 5907 5905 5904 5903 5902 5900 5898 5897 5895 5893 5891 5890 5888 5887 5885 5884 5883 5882 5881 5880 5880 5879 5879 5878 5878 5877 5876 5876 5875 5875 5874 5873 5873 5872 5872 5872
5917 5915 5914 5913 5911 5910 5908 5907 5906 5904 5903 5902 5900 5898 5897 5895 5893 5892 5890 5888 5886 5885 5884 5883 5881 5880 5879 5878 5878 5877 5877 5876 5876 5875 5874 5874 5873 5873 5872 5871 5871 5870 5870
5917 5916 5915 5913 5912 5910 5909 5908 5906 5905 5903 5902 5901 5899 5897 5895 5893 5892 5890 5888 5886 5885 5883 5882 5880 5879 5878 5877 5877 5876 5875 5875 5874 5873 5873 5872 5872 5871 5871 5870 5869 5868 5868
5917 5916 5915 5914 5912 5911 5909 5908 5907 5905 5904 5902 5900 5899 5897 5895 5893 5891 5889 5887 5886 5884 5882 5881 5879 5878 5877 5876 5875 5874 5873 5873 5872 5872 5871 5870 5870 5869 5869 5868 5868 5867 5866
5916 5915 5914 5913 5912 5911 5909 5908 5907 5905 5904 5902 5900 5898 5896 5894 5892 5890 5888 5886 5884 5883 5881 5879 5878 5876 5875 5874 5872 5872 5871 5871 5870 5870 5869 5869 5868 5868 5867 5866 5865 5865 5865
5915 5915 5914 5913 5912 5911 5909 5908 5906 5905 5903 5901 5899 5897 5895 5893 5891 5889 5887 5885 5883 5881 5879 5878 5876 5874 5873 5872 5870 5869 5869 5868 5868 5868 5867 5866 5866 5865 5865 5864 5864 5863 5863
5914 5913 5913 5912 5911 5910 5908 5907 5905 5903 5902 5900 5898 5896 5894 5892 5890 5888 5886 5884 5881 5879 5878 5876 5874 5872 5871 5869 5867 5866 5866 5866 5865 5865 5864 5864 5863 5862 5862 5862 5861 5861 5860
5913 5912 5911 5910 5909 5908 5906 5905 5903 5901 5900 5898 5896 5894 5892 5890 5888 5886 5884 5882 5880 5878 5876 5874 5872 5870 5868 5867 5865 5864 5863 5863 5863 5862 5861 5861 5860 5860 5859 5858 5858 5858 5857
5911 5910 5910 5909 5907 5906 5904 5902 5901 5899 5897 5895 5893 5891 5890 5888 5886 5884 5882 5879 5877 5875 5873 5871 5869 5868 5866 5864 5862 5861 5860 5860 5859 5859 5858 5857 5857 5856 5855 5855 5854 5854 5853
5910 5909 5908 5906 5905 5903 5902 5900 5898 5896 5894 5892 5890 5888 5886 5884 5883 5881 5879 5876 5874 5872 5870 5868 5866 5864 5863 5861 5859 5858 5857 5857 5856 5855 5855 5854 5853 5852 5851 5851 5850 5850 5849
5907 5906 5905 5904 5902 5901 5899 5897 5895 5893 5891 5889 5887 5885 5883 5881 5879 5877 5875 5873 5871 5869 5867 5865 5863 5861 5859 5858 5856 5855 5854 5853 5852 5851 5851 5850 5849 5848 5847 5847 5846 5845 5845
5904 5903 5902 5901 5899 5898 5896 5894 5892 5889 5887 5885 5883 5881 5879 5877 5875 5873 5871 5868 5866 5864 5862 5860 5859 5857 5855 5854 5852 5851 5849 5848 5848 5847 5846 5845 5844 5843 5843 5842 5841 5840 5840
5900 5900 5898 5897 5895 5894 5892 5890 5888 5885 5883 5881 5879 5876 5874 5872 5870 5868 5865 5863 5861 5859 5857 5855 5853 5852 5850 5849 5847 5846 5845 5843 5842 5842 5841 5840 5839 5838 5837 5837 5836 5835 5835
5896 5895 5894 5892 5891 5889 5887 5885 5883 5881 5878 5876 5874 5871 5869 5867 5864 5862 5860 5857 5855 5853 5851 5849 5847 5846 5844 5843 5841 5840 5839 5838 5837 5836 5835 5834 5834 5833 5832 5831 5831 5830 5829
5892 5890 5889 5887 5886 5884 5882 5880 5878 5876 5873 5871 5868 5866 5863 5861 5858 5856 5853 5851 5848 5846 5844 5843 5841 5839 5838 5836 5835 5833 5832 5831 5830 5829 5828 5828 5827 5827 5826 5825 5825 5824 5824
5886 5885 5883 5882 5880 5878 5876 5874 5872 5870 5867 5865 5862 5860 5857 5854 5852 5849 5846 5843 5841 5839 5837 5835 5833 5832 5830 5829 5828 5826 5825 5824 5823 5822 5821 5821 5820 5820 5819 5819 5818 5818 5817
5880 5878 5877 5875 5874 5871 5869 5867 5865 5862 5860 5858 5855 5852 5850 5847 5845 5842 5839 5836 5833 5831 5829 5827 5825 5824 5822 5821 5820 5819 5817 5816 5815 5814 5814 5813 5813 5812 5812 5811 5811 5810 5809
5873 5872 5870 5869 5867 5865 5863 5860 5858 5855 5852 5850 5847 5845 5842 5839 5837 5834 5831 5828 5825 5823 5821 5819 5817 5815 5814 5813 5811 5810 5809 5808 5807 5806 5806 5805 5805 5804 5804 5803 5802 5802 5801
5866 5865 5863 5862 5860 5858 5855 5852 5850 5847 5845 5843 5840 5837 5835 5832 5829 5826 5823 5820 5818 5815 5813 5811 5809 5807 5806 5804 5803 5801 5800 5800 5799 5798 5797 5797 5796 5795 5794 5794 5793 5793 5793
5858 5857 5855 5853 5852 5849 5847 5844 5842 5840 5837 5835 5832 5829 5826 5823 5821 5818 5815 5812 5810 5807 5805 5802 5800 5798 5797 5795 5794 5792 5791 5790 5790 5789 5788 5788 5787 5786 5785 5784 5784 5784 5783
5850 5848 5847 5845 5843 5841 5839 5837 5835 5832 5829 5827 5824 5821 5818 5815 5812 5810 5807 5804 5801 5799 5796 5794 5791 5789 5787 5786 5785 5784 5782 5781 5780 5780 5779 5778 5778 5776 5775 5775 5775 5774 5773
5841 5840 5838 5837 5835 5833 5831 5829 5826 5823 5821 5819 5816 5813 5810 5807 5804 5801 5798 5795 5793 5790 5788 5785 5783 5780 5778 5777 5775 5774 5773 5771 5771 5770 5769 5768 5767 5767 5766 5765 5765 5764 5763
5832 5831 5829 5828 5827 5825 5822 5820 5817 5815 5813 5810 5808 5805 5802 5799 5796 5793 5790 5787 5784 5781 5779 5777 5774 5772 5770 5768 5766 5764 5763 5762 5761 5760 5759 5758 5757 5756 5756 5755 5754 5754 5753
5824 5822 5821 5819 5817 5816 5813 5811 5809 5806 5804 5802 5799 5796 5793 5790 5787 5784 5781 5778 5776 5773 5770 5768 5765 5763 5761 5758 5756 5754 5753 5752 5751 5750 5749 5748 5747 5746 5745 5744 5744 5743 5743
5815 5813 5812 5810 5808 5806 5804 5802 5800 5798 5795 5793 5790 5787 5784 5781 5779 5776 5773 5770 5768 5765 5762 5759 5756 5754 5752 5749 5747 5745 5744 5742 5741 5740 5739 5738 5737 5736 5735 5734 5733 5732 5732